Time,TemperatureF,DewpointF,PressureIn,WindDirection,WindDirectionDegrees,WindSpeedMPH,WindSpeedGustMPH,Humidity,HourlyPrecipIn,Conditions,Clouds,dailyrainin,SolarRadiationWatts/m^2,SoftwareType,DateUTC
2013-02-14 00:01:00,34.0,26.0,30.16,WNW,282,6.0,9.0,74,-99.99,,,-99.99,0.000000,,2013-02-14 07:01:00,
2013-02-14 00:11:00,31.0,25.0,30.16,WSW,252,5.0,8.0,77,-99.99,,,-99.99,-0.100000,,2013-02-14 07:11:00,
2013-02-14 00:21:00,31.0,25.0,30.16,WSW,247,5.0,7.0,77,-99.99,,,-99.99,-0.300000,,2013-02-14 07:21:00,
2013-02-14 00:31:00,31.0,25.0,30.17,WSW,245,5.0,9.0,78,-99.99,,,-99.99,0.000000,,2013-02-14 07:31:00,
2013-02-14 00:41:00,31.0,25.0,30.17,WSW,241,6.0,8.0,78,-99.99,,,-99.99,0.000000,,2013-02-14 07:41:00,
2013-02-14 00:51:00,31.0,25.0,30.18,West,275,4.0,6.0,77,-99.99,,,-99.99,0.000000,,2013-02-14 07:51:00,
2013-02-14 01:01:00,31.0,24.0,30.18,WNW,299,5.0,10.0,77,-99.99,,,-99.99,-0.100000,,2013-02-14 08:01:00,
2013-02-14 01:11:00,28.0,24.0,30.18,WNW,290,4.0,5.0,82,-99.99,,,-99.99,-0.100000,,2013-02-14 08:11:00,
2013-02-14 01:21:00,28.0,24.0,30.18,SW,217,3.0,5.0,83,-99.99,,,-99.99,-0.200000,,2013-02-14 08:21:00,
2013-02-14 01:31:00,28.0,24.0,30.18,SSW,209,4.0,5.0,83,-99.99,,,-99.99,-0.100000,,2013-02-14 08:31:00,
2013-02-14 01:43:00,28.0,24.0,30.18,SW,219,4.0,5.0,84,-99.99,,,-99.99,-0.100000,,2013-02-14 08:43:00,
2013-02-14 01:52:00,27.0,24.0,30.19,SW,236,2.0,3.0,85,-99.99,,,-99.99,0.000000,,2013-02-14 08:52:00,
2013-02-14 02:01:00,27.0,23.0,30.19,SSW,200,5.0,6.0,85,-99.99,,,-99.99,0.000000,,2013-02-14 09:01:00,
2013-02-14 02:11:00,27.0,23.0,30.19,WSW,242,5.0,8.0,85,-99.99,,,-99.99,-0.200000,,2013-02-14 09:11:00,
2013-02-14 02:21:00,27.0,23.0,30.20,WSW,241,4.0,6.0,85,-99.99,,,-99.99,-0.100000,,2013-02-14 09:21:00,
2013-02-14 02:31:00,26.0,23.0,30.20,SW,236,4.0,5.0,86,-99.99,,,-99.99,0.100000,,2013-02-14 09:31:00,
2013-02-14 02:41:00,26.0,23.0,30.21,SW,233,4.0,5.0,87,-99.99,,,-99.99,-0.100000,,2013-02-14 09:41:00,
2013-02-14 02:51:00,25.0,22.0,30.21,SSW,200,5.0,7.0,87,-99.99,,,-99.99,0.000000,,2013-02-14 09:51:00,
2013-02-14 03:01:00,25.0,22.0,30.21,SSW,211,5.0,6.0,88,-99.99,,,-99.99,-0.100000,,2013-02-14 10:01:00,
2013-02-14 03:11:00,25.0,22.0,30.21,SSW,212,5.0,7.0,88,-99.99,,,-99.99,-0.100000,,2013-02-14 10:11:00,
2013-02-14 03:21:00,24.0,21.0,30.21,SSW,206,4.0,7.0,88,-99.99,,,-99.99,-0.100000,,2013-02-14 10:21:00,
2013-02-14 03:31:00,24.0,21.0,30.21,SW,232,5.0,7.0,88,-99.99,,,-99.99,-0.200000,,2013-02-14 10:31:00,
2013-02-14 03:41:00,24.0,21.0,30.21,SSW,201,6.0,7.0,88,-99.99,,,-99.99,-0.100000,,2013-02-14 10:41:00,
2013-02-14 03:52:00,24.0,21.0,30.21,SSW,205,4.0,6.0,88,-99.99,,,-99.99,-0.100000,,2013-02-14 10:52:00,
2013-02-14 04:01:00,23.0,20.0,30.21,SSW,192,5.0,6.0,87,-99.99,,,-99.99,-0.300000,,2013-02-14 11:01:00,
2013-02-14 04:11:00,23.0,20.0,30.22,SW,233,5.0,6.0,88,-99.99,,,-99.99,-0.100000,,2013-02-14 11:11:00,
2013-02-14 04:21:00,24.0,21.0,30.22,WSW,239,6.0,8.0,88,-99.99,,,-99.99,-0.100000,,2013-02-14 11:21:00,
2013-02-14 04:31:00,24.0,21.0,30.23,WSW,243,5.0,7.0,88,-99.99,,,-99.99,-0.100000,,2013-02-14 11:31:00,
2013-02-14 04:41:00,24.0,21.0,30.23,WSW,241,6.0,8.0,88,-99.99,,,-99.99,0.000000,,2013-02-14 11:41:00,
2013-02-14 04:51:00,24.0,21.0,30.24,SW,230,5.0,6.0,87,-99.99,,,-99.99,0.100000,,2013-02-14 11:51:00,
2013-02-14 05:01:00,25.0,22.0,30.25,SW,227,3.0,4.0,86,-99.99,,,-99.99,0.000000,,2013-02-14 12:01:00,
2013-02-14 05:11:00,25.0,22.0,30.25,SW,218,6.0,9.0,86,-99.99,,,-99.99,-0.100000,,2013-02-14 12:11:00,
2013-02-14 05:21:00,26.0,22.0,30.25,SW,230,4.0,6.0,86,-99.99,,,-99.99,-0.100000,,2013-02-14 12:21:00,
2013-02-14 05:31:00,26.0,22.0,30.25,WSW,238,4.0,4.0,85,-99.99,,,-99.99,0.000000,,2013-02-14 12:31:00,
2013-02-14 05:41:00,25.0,21.0,30.25,SW,232,3.0,3.0,86,-99.99,,,-99.99,0.000000,,2013-02-14 12:41:00,
2013-02-14 05:53:00,24.0,21.0,30.25,SW,229,3.0,5.0,86,-99.99,,,-99.99,0.000000,,2013-02-14 12:53:00,
2013-02-14 06:01:00,24.0,21.0,30.25,WSW,238,5.0,8.0,88,-99.99,,,-99.99,-0.100000,,2013-02-14 13:01:00,
2013-02-14 06:11:00,25.0,22.0,30.26,SW,233,6.0,9.0,88,-99.99,,,-99.99,-0.100000,,2013-02-14 13:11:00,
2013-02-14 06:21:00,26.0,22.0,30.27,SW,223,6.0,9.0,88,-99.99,,,-99.99,0.000000,,2013-02-14 13:21:00,
2013-02-14 06:31:00,25.0,22.0,30.27,SW,225,6.0,9.0,88,-99.99,,,-99.99,-0.100000,,2013-02-14 13:31:00,
2013-02-14 06:41:00,25.0,22.0,30.27,West,261,4.0,8.0,88,-99.99,,,-99.99,0.000000,,2013-02-14 13:41:00,
2013-02-14 06:51:00,25.0,22.0,30.27,SW,234,4.0,7.0,89,-99.99,,,-99.99,-0.100000,,2013-02-14 13:51:00,
2013-02-14 07:01:00,25.0,22.0,30.27,SSW,205,4.0,6.0,89,-99.99,,,-99.99,-0.100000,,2013-02-14 14:01:00,
2013-02-14 07:11:00,23.0,20.0,30.27,NNW,344,3.0,5.0,88,-99.99,,,-99.99,0.000000,,2013-02-14 14:11:00,
2013-02-14 07:21:00,22.0,20.0,30.28,West,272,3.0,5.0,90,-99.99,,,-99.99,0.000000,,2013-02-14 14:21:00,
2013-02-14 07:31:00,24.0,22.0,30.29,West,265,4.0,5.0,90,-99.99,,,-99.99,0.400000,,2013-02-14 14:31:00,
2013-02-14 07:41:00,24.0,22.0,30.29,West,269,3.0,6.0,90,-99.99,,,-99.99,1.900000,,2013-02-14 14:41:00,
2013-02-14 07:52:00,23.0,21.0,30.30,WNW,302,3.0,4.0,90,-99.99,,,-99.99,3.700000,,2013-02-14 14:52:00,
2013-02-14 08:01:00,24.0,21.0,30.30,NW,310,4.0,5.0,90,-99.99,,,-99.99,6.800000,,2013-02-14 15:01:00,
2013-02-14 08:11:00,24.0,22.0,30.31,WSW,241,4.0,7.0,90,-99.99,,,-99.99,15.200000,,2013-02-14 15:11:00,
2013-02-14 08:21:00,24.0,21.0,30.32,WNW,293,3.0,4.0,89,-99.99,,,-99.99,31.000000,,2013-02-14 15:21:00,
2013-02-14 08:31:00,24.0,22.0,30.32,West,263,3.0,4.0,90,-99.99,,,-99.99,28.400000,,2013-02-14 15:31:00,
2013-02-14 08:41:00,24.0,22.0,30.33,WSW,247,3.0,4.0,89,-99.99,,,-99.99,44.400002,,2013-02-14 15:41:00,
2013-02-14 08:51:00,25.0,22.0,30.33,SW,230,4.0,5.0,89,-99.99,,,-99.99,89.300003,,2013-02-14 15:51:00,
2013-02-14 09:01:00,26.0,23.0,30.34,WNW,289,4.0,5.0,89,-99.99,,,-99.99,112.099998,,2013-02-14 16:01:00,
2013-02-14 09:11:00,26.0,23.0,30.34,WNW,287,5.0,7.0,89,-99.99,,,-99.99,92.800003,,2013-02-14 16:11:00,
2013-02-14 09:21:00,26.0,24.0,30.34,WSW,251,3.0,6.0,89,-99.99,,,-99.99,98.000000,,2013-02-14 16:21:00,
2013-02-14 09:31:00,27.0,24.0,30.34,SW,235,4.0,5.0,89,-99.99,,,-99.99,128.199997,,2013-02-14 16:31:00,
2013-02-14 09:41:00,27.0,24.0,30.34,SSW,212,4.0,6.0,89,-99.99,,,-99.99,139.100006,,2013-02-14 16:41:00,
2013-02-14 09:51:00,27.0,25.0,30.34,SSW,205,6.0,10.0,88,-99.99,,,-99.99,191.500000,,2013-02-14 16:51:00,
2013-02-14 10:01:00,28.0,25.0,30.34,SW,216,8.0,12.0,88,-99.99,,,-99.99,339.100006,,2013-02-14 17:01:00,
2013-02-14 10:11:00,29.0,26.0,30.34,SW,215,8.0,12.0,86,-99.99,,,-99.99,281.299988,,2013-02-14 17:11:00,
2013-02-14 10:21:00,30.0,25.0,30.34,SW,218,11.0,15.0,83,-99.99,,,-99.99,438.799988,,2013-02-14 17:21:00,
2013-02-14 10:31:00,30.0,26.0,30.34,SW,222,12.0,16.0,82,-99.99,,,-99.99,533.500000,,2013-02-14 17:31:00,
2013-02-14 10:41:00,31.0,25.0,30.35,SW,231,10.0,14.0,81,-99.99,,,-99.99,305.100006,,2013-02-14 17:41:00,
2013-02-14 10:52:00,31.0,26.0,30.35,SW,220,11.0,14.0,81,-99.99,,,-99.99,386.200012,,2013-02-14 17:52:00,
2013-02-14 11:01:00,32.0,26.0,30.35,SW,218,11.0,16.0,79,-99.99,,,-99.99,531.700012,,2013-02-14 18:01:00,
2013-02-14 11:11:00,32.0,26.0,30.35,SW,220,13.0,19.0,77,-99.99,,,-99.99,542.200012,,2013-02-14 18:11:00,
2013-02-14 11:22:00,32.0,26.0,30.35,SW,230,11.0,17.0,75,-99.99,,,-99.99,573.200012,,2013-02-14 18:22:00,
2013-02-14 11:31:00,33.0,26.0,30.36,SW,236,11.0,17.0,75,-99.99,,,-99.99,598.299988,,2013-02-14 18:31:00,
2013-02-14 11:41:00,32.0,26.0,30.36,SW,221,12.0,18.0,75,-99.99,,,-99.99,564.200012,,2013-02-14 18:41:00,
2013-02-14 11:51:00,33.0,26.0,30.36,SW,236,12.0,17.0,75,-99.99,,,-99.99,612.900024,,2013-02-14 18:51:00,
2013-02-14 12:01:00,33.0,26.0,30.36,SW,229,11.0,17.0,73,-99.99,,,-99.99,535.900024,,2013-02-14 19:01:00,
2013-02-14 12:11:00,33.0,25.0,30.36,SW,225,12.0,17.0,73,-99.99,,,-99.99,636.599976,,2013-02-14 19:11:00,
2013-02-14 12:21:00,33.0,26.0,30.36,WSW,240,8.0,13.0,74,-99.99,,,-99.99,566.099976,,2013-02-14 19:21:00,
2013-02-14 12:31:00,33.0,26.0,30.36,SW,227,10.0,14.0,73,-99.99,,,-99.99,600.900024,,2013-02-14 19:31:00,
2013-02-14 12:41:00,33.0,25.0,30.35,SW,228,10.0,14.0,72,-99.99,,,-99.99,481.299988,,2013-02-14 19:41:00,
2013-02-14 12:51:00,34.0,26.0,30.35,SSW,210,12.0,15.0,71,-99.99,,,-99.99,643.500000,,2013-02-14 19:51:00,
2013-02-14 13:01:00,34.0,25.0,30.35,SW,228,13.0,16.0,70,-99.99,,,-99.99,645.400024,,2013-02-14 20:01:00,
2013-02-14 13:11:00,34.0,26.0,30.35,SW,222,11.0,16.0,71,-99.99,,,-99.99,643.299988,,2013-02-14 20:11:00,
2013-02-14 13:21:00,34.0,26.0,30.35,SW,234,13.0,19.0,70,-99.99,,,-99.99,685.200012,,2013-02-14 20:21:00,
2013-02-14 13:31:00,35.0,26.0,30.35,SSW,209,13.0,19.0,70,-99.99,,,-99.99,636.599976,,2013-02-14 20:31:00,
2013-02-14 13:41:00,34.0,25.0,30.35,SW,230,12.0,18.0,69,-99.99,,,-99.99,635.099976,,2013-02-14 20:41:00,
2013-02-14 13:51:00,34.0,26.0,30.34,SW,223,13.0,18.0,70,-99.99,,,-99.99,621.599976,,2013-02-14 20:51:00,
2013-02-14 14:01:00,34.0,26.0,30.33,SW,223,14.0,19.0,70,-99.99,,,-99.99,627.900024,,2013-02-14 21:01:00,
2013-02-14 14:11:00,35.0,26.0,30.33,SW,220,11.0,17.0,70,-99.99,,,-99.99,664.000000,,2013-02-14 21:11:00,
2013-02-14 14:21:00,34.0,26.0,30.33,SW,218,15.0,22.0,70,-99.99,,,-99.99,638.000000,,2013-02-14 21:21:00,
2013-02-14 14:31:00,34.0,26.0,30.33,SW,227,15.0,21.0,70,-99.99,,,-99.99,679.299988,,2013-02-14 21:31:00,
2013-02-14 14:41:00,35.0,26.0,30.34,SW,220,15.0,23.0,69,-99.99,,,-99.99,596.900024,,2013-02-14 21:41:00,
2013-02-14 14:51:00,34.0,26.0,30.33,SW,220,13.0,18.0,70,-99.99,,,-99.99,353.500000,,2013-02-14 21:51:00,
2013-02-14 15:01:00,34.0,26.0,30.33,SW,220,12.0,17.0,71,-99.99,,,-99.99,226.899994,,2013-02-14 22:01:00,
2013-02-14 15:11:00,34.0,26.0,30.33,SW,214,13.0,18.0,72,-99.99,,,-99.99,249.800003,,2013-02-14 22:11:00,
2013-02-14 15:21:00,34.0,26.0,30.33,SSW,213,10.0,15.0,72,-99.99,,,-99.99,392.299988,,2013-02-14 22:21:00,
2013-02-14 15:31:00,34.0,26.0,30.33,SW,220,9.0,15.0,70,-99.99,,,-99.99,347.700012,,2013-02-14 22:31:00,
2013-02-14 15:41:00,35.0,26.0,30.33,SW,222,11.0,18.0,69,-99.99,,,-99.99,350.600006,,2013-02-14 22:41:00,
2013-02-14 15:51:00,35.0,26.0,30.33,SSW,211,10.0,16.0,68,-99.99,,,-99.99,232.699997,,2013-02-14 22:51:00,
2013-02-14 16:01:00,35.0,26.0,30.33,SSW,213,9.0,15.0,68,-99.99,,,-99.99,231.899994,,2013-02-14 23:01:00,
2013-02-14 16:11:00,36.0,26.0,30.33,SW,218,9.0,13.0,67,-99.99,,,-99.99,243.500000,,2013-02-14 23:11:00,
2013-02-14 16:21:00,36.0,26.0,30.33,SW,220,11.0,13.0,65,-99.99,,,-99.99,203.600006,,2013-02-14 23:21:00,
2013-02-14 16:31:00,36.0,26.0,30.33,SW,225,9.0,12.0,65,-99.99,,,-99.99,154.500000,,2013-02-14 23:31:00,
2013-02-14 16:41:00,36.0,25.0,30.33,SW,233,8.0,11.0,63,-99.99,,,-99.99,158.600006,,2013-02-14 23:41:00,
2013-02-14 16:52:00,36.0,25.0,30.33,SW,230,9.0,15.0,63,-99.99,,,-99.99,168.500000,,2013-02-14 23:52:00,
2013-02-14 17:01:00,36.0,26.0,30.33,SW,235,8.0,12.0,65,-99.99,,,-99.99,127.699997,,2013-02-15 00:01:00,
2013-02-14 17:11:00,36.0,27.0,30.33,SW,232,9.0,12.0,67,-99.99,,,-99.99,112.199997,,2013-02-15 00:11:00,
2013-02-14 17:21:00,36.0,27.0,30.33,SW,223,8.0,11.0,68,-99.99,,,-99.99,148.300003,,2013-02-15 00:21:00,
2013-02-14 17:31:00,36.0,27.0,30.33,SW,232,8.0,13.0,68,-99.99,,,-99.99,113.099998,,2013-02-15 00:31:00,
2013-02-14 17:41:00,36.0,26.0,30.33,SW,235,7.0,11.0,68,-99.99,,,-99.99,83.300003,,2013-02-15 00:41:00,
2013-02-14 17:51:00,36.0,27.0,30.33,SW,230,8.0,11.0,69,-99.99,,,-99.99,42.200001,,2013-02-15 00:51:00,
2013-02-14 18:01:00,35.0,27.0,30.33,SW,228,4.0,6.0,70,-99.99,,,-99.99,24.600000,,2013-02-15 01:01:00,
2013-02-14 18:11:00,35.0,26.0,30.33,SW,219,4.0,5.0,71,-99.99,,,-99.99,13.400000,,2013-02-15 01:11:00,
2013-02-14 18:21:00,34.0,26.0,30.33,SW,216,5.0,7.0,72,-99.99,,,-99.99,5.900000,,2013-02-15 01:21:00,
2013-02-14 18:31:00,34.0,26.0,30.33,SSW,210,5.0,7.0,73,-99.99,,,-99.99,1.200000,,2013-02-15 01:31:00,
2013-02-14 18:41:00,33.0,26.0,30.33,SSW,197,4.0,5.0,73,-99.99,,,-99.99,0.200000,,2013-02-15 01:41:00,
2013-02-14 18:51:00,33.0,26.0,30.33,SSW,195,5.0,7.0,74,-99.99,,,-99.99,-0.100000,,2013-02-15 01:51:00,
2013-02-14 19:01:00,33.0,26.0,30.32,SSW,197,6.0,11.0,74,-99.99,,,-99.99,-0.100000,,2013-02-15 02:01:00,
2013-02-14 19:11:00,33.0,26.0,30.32,SSW,208,9.0,14.0,74,-99.99,,,-99.99,0.000000,,2013-02-15 02:11:00,
2013-02-14 19:21:00,33.0,26.0,30.32,SSW,210,9.0,14.0,74,-99.99,,,-99.99,0.100000,,2013-02-15 02:21:00,
2013-02-14 19:31:00,33.0,26.0,30.32,SSW,206,9.0,14.0,74,-99.99,,,-99.99,0.100000,,2013-02-15 02:31:00,
2013-02-14 19:41:00,33.0,26.0,30.33,SSW,211,9.0,12.0,74,-99.99,,,-99.99,0.000000,,2013-02-15 02:41:00,
2013-02-14 19:51:00,33.0,26.0,30.33,SSW,210,9.0,13.0,73,-99.99,,,-99.99,-0.100000,,2013-02-15 02:51:00,
2013-02-14 20:01:00,33.0,25.0,30.33,SSW,208,10.0,14.0,73,-99.99,,,-99.99,-0.200000,,2013-02-15 03:01:00,
2013-02-14 20:11:00,33.0,25.0,30.33,SSW,210,11.0,16.0,72,-99.99,,,-99.99,-0.100000,,2013-02-15 03:11:00,
2013-02-14 20:21:00,33.0,25.0,30.33,SSW,208,12.0,18.0,72,-99.99,,,-99.99,-0.100000,,2013-02-15 03:21:00,
2013-02-14 20:31:00,33.0,25.0,30.33,SSW,207,12.0,16.0,72,-99.99,,,-99.99,0.000000,,2013-02-15 03:31:00,
2013-02-14 20:41:00,33.0,25.0,30.33,SSW,205,12.0,16.0,74,-99.99,,,-99.99,-0.200000,,2013-02-15 03:41:00,
2013-02-14 20:51:00,32.0,25.0,30.33,SSW,203,12.0,16.0,74,-99.99,,,-99.99,0.000000,,2013-02-15 03:51:00,
2013-02-14 21:01:00,32.0,25.0,30.34,SSW,208,10.0,14.0,75,-99.99,,,-99.99,0.000000,,2013-02-15 04:01:00,
2013-02-14 21:11:00,32.0,25.0,30.34,SSW,208,10.0,14.0,75,-99.99,,,-99.99,-0.100000,,2013-02-15 04:11:00,
2013-02-14 21:21:00,32.0,25.0,30.35,SSW,211,11.0,17.0,75,-99.99,,,-99.99,0.100000,,2013-02-15 04:21:00,
2013-02-14 21:31:00,32.0,25.0,30.35,SSW,211,10.0,15.0,75,-99.99,,,-99.99,0.000000,,2013-02-15 04:31:00,
2013-02-14 21:41:00,32.0,25.0,30.35,SSW,203,11.0,16.0,74,-99.99,,,-99.99,-0.300000,,2013-02-15 04:41:00,
2013-02-14 21:51:00,32.0,25.0,30.35,SSW,205,11.0,15.0,73,-99.99,,,-99.99,-0.100000,,2013-02-15 04:51:00,
2013-02-14 22:01:00,32.0,24.0,30.35,SSW,207,10.0,12.0,72,-99.99,,,-99.99,0.000000,,2013-02-15 05:01:00,
2013-02-14 22:11:00,32.0,24.0,30.35,SSW,210,11.0,16.0,71,-99.99,,,-99.99,-0.100000,,2013-02-15 05:11:00,
2013-02-14 22:22:00,32.0,24.0,30.36,SSW,213,11.0,15.0,71,-99.99,,,-99.99,0.000000,,2013-02-15 05:22:00,
2013-02-14 22:32:00,32.0,24.0,30.36,SSW,213,10.0,15.0,71,-99.99,,,-99.99,0.100000,,2013-02-15 05:32:00,
2013-02-14 22:41:00,31.0,24.0,30.36,SSW,211,10.0,13.0,72,-99.99,,,-99.99,-0.100000,,2013-02-15 05:41:00,
2013-02-14 22:52:00,31.0,24.0,30.36,SSW,206,11.0,16.0,73,-99.99,,,-99.99,0.100000,,2013-02-15 05:52:00,
2013-02-14 23:01:00,31.0,24.0,30.36,SSW,206,11.0,14.0,73,-99.99,,,-99.99,-0.100000,,2013-02-15 06:01:00,
2013-02-14 23:11:00,31.0,24.0,30.36,SW,215,9.0,13.0,73,-99.99,,,-99.99,0.000000,,2013-02-15 06:11:00,
2013-02-14 23:21:00,31.0,24.0,30.36,SW,214,9.0,12.0,73,-99.99,,,-99.99,-0.200000,,2013-02-15 06:21:00,
2013-02-14 23:31:00,31.0,24.0,30.37,SSW,213,10.0,14.0,74,-99.99,,,-99.99,-0.200000,,2013-02-15 06:31:00,
2013-02-14 23:41:00,31.0,24.0,30.37,SSW,208,10.0,14.0,74,-99.99,,,-99.99,0.000000,,2013-02-15 06:41:00,
2013-02-14 23:51:00,31.0,24.0,30.36,SSW,209,10.0,15.0,74,-99.99,,,-99.99,0.000000,,2013-02-15 06:51:00,